Showing default

ION SCV-020, 64545

Orbit data source: Space-Track

ION SCV-020, 64545 is a payload satellite owned by D-ORBIT (IT) in SSO that was launched on Mon, 23 Jun 2025 UTC via an FALCON 9 launch vehicle from the Air Force Western Test Range (AFWTR). Payload-class satellites include a variety of spacecraft equipped with specific instruments for various scientific and technological missions. These include communications satellites like Starlink; space stations such as the ISS; scientific satellites like the Hubble; Earth observation satellites from companies like Planet Labs, Umbra, and HawkEye 360; GPS; miniature CubeSats for education and research; and military/defense satellites.

Loading next visibility...
Identifier
64545, 2025-135T
Orbit
SSO
Country
Flag of ITIT
Related business
Manufacturer
D-ORBIT
Mission
Operational Commercial Technology
Bus & Motor
ION-SC, PM200
Mass
220 kg wet, 150 kg dry
Launch date (UTC)
2025-06-23 (7 months ago)
Launch vehicle
FALCON 9
Launch site
Air Force Western Test Range (AFWTR)
Object type
Payload
Rocket body
Debris
Shape & HBR
Box, 0.2 m
Radar Cross Section
0.240 m², Medium (>0.1 m² and < 1m²)

Expand to show TLE details & history
Last TLE update: 11 hours ago

TLE from 11 hours ago
0 ION SCV-020
1 64545U 25135T   26035.80063843  .00005660  00000-0  26587-3 0  9996
2 64545  97.4570 152.1499 0001121 322.1881  37.9275 15.20008580 34738
Epoch: 2026-02-04T19:12Z
TLE epoch observation values (Epoch: 2026-02-04T19:12:55.160Z)
Latitude
-0.00002°
Longitude
88.95805°
Altitude
508.295 km
Speed
7.61 km/s
True Right ascension
10h 08m 35s
True Declination
0° 00' 00"
Sunlit
Object was in full shadow at epoch
Visualization orbit readout
Latitude
Unknown
Longitude
Unknown
Altitude
Unknown
Speed
Unknown
Apparent Right ascension
Unknown
Apparent Declination
Unknown
Sunlit
N/A
Visualization observer readout
Local Sidereal Time
07:51:48
Azimuth
Unknown
Elevation
Unknown
Doppler factor
Unknown
Orbital elements
Apogee altitude
503.554 km
Perigee altitude
502.011 km
Semi-major axis
6,880.92 km
Eccentricity
0.00011
Inclination
97.457°
RAAN
152.1499°
Arg. of periapsis
322.1881°
True anomaly
37.9354°
Mean anomaly
37.9275°
Eccentric anomaly
37.93145°
Mean motion
3.80254 °/min
Orbital period
94.67 mins
BSTAR
0.00026587
Loading maneuver chart data...
Computing Atmospheric mass density...
Loading historical data...
Loading historical data...
Loading historical data...
Loading historical data...
Loading historical data...
Loading historical data...
Loading historical data...

Documentation

Showing up to 5 results
|